CW9436 Weather Reports


Display with metric or nautical units.
time (UTC)temp
F
wind
direction
speed
MPH
gust
MPH
rain 1hr
in
rain 24hr
in
rain mn
in
humidity
%
barometer
mb
20260507203108 51 0 0.0 2.0 0.00 0.01 0.01 86 1014.7
20260507202524 52 0 0.0 2.0 0.00 0.01 0.01 87 1014.8
20260507202021 52 0 0.0 2.0 0.00 0.01 0.01 87 1014.6
20260507201540 52 149 0.0 2.0 0.00 0.01 0.01 86 1014.6
20260507201019 52 0 0.0 3.0 0.00 0.01 0.01 86 1014.6
20260507200526 52 149 1.0 4.0 0.00 0.01 0.01 86 1014.5
20260507200037 52 149 2.0 4.0 0.00 0.01 0.01 86 1014.5
20260507195521 52 149 0.0 6.0 0.00 0.01 0.01 87 1014.4
20260507195019 53 149 2.0 6.0 0.00 0.01 0.01 87 1014.4
20260507194548 53 149 2.0 5.0 0.00 0.01 0.01 87 1014.3
20260507194026 53 149 1.0 5.0 0.00 0.01 0.01 87 1014.3
20260507193522 53 149 1.0 5.0 0.00 0.01 0.01 86 1014.3
20260507193042 53 153 1.0 5.0 0.00 0.01 0.01 86 1014.3
20260507192521 53 153 1.0 6.0 0.00 0.01 0.01 86 1014.2
20260507192021 54 153 2.0 6.0 0.00 0.01 0.01 87 1014.3
20260507191545 54 158 2.0 6.0 0.00 0.01 0.01 87 1014.2
20260507191021 54 160 2.0 4.0 0.00 0.01 0.01 87 1014.3
20260507190521 54 0 0.0 1.0 0.00 0.01 0.01 86 1014.3
20260507190046 54 0 0.0 2.0 0.00 0.01 0.01 86 1014.2
20260507185521 54 0 0.0 2.0 0.00 0.01 0.01 86 1014.2
20260507185021 54 0 0.0 0.0 0.00 0.01 0.01 87 1014.2
20260507184535 54 0 0.0 0.0 0.01 0.01 0.01 87 1014.1
20260507184021 54 0 0.0 0.0 0.01 0.01 0.01 86 1014.0
20260507183521 54 0 0.0 0.0 0.01 0.01 0.01 86 1014.0
20260507183041 54 0 0.0 0.0 0.01 0.01 0.01 86 1014.0
20260507182522 54 0 0.0 0.0 0.01 0.01 0.01 86 1014.0
20260507182020 54 0 0.0 2.0 0.01 0.01 0.01 85 1013.9
20260507181543 54 0 0.0 2.0 0.01 0.01 0.01 84 1014.0
20260507181022 54 160 0.0 3.0 0.01 0.01 0.01 83 1013.9
20260507180520 55 0 0.0 3.0 0.01 0.01 0.01 82 1013.9
20260507180042 55 160 1.0 6.0 0.00 0.00 0.00 80 1013.8
20260507175522 55 161 1.0 6.0 0.00 0.00 0.00 78 1013.8
20260507175023 56 161 2.0 6.0 0.00 0.00 0.00 77 1013.8
20260507174543 56 154 0.0 4.0 0.00 0.00 0.00 75 1013.9
20260507174024 56 154 2.0 5.0 0.00 0.00 0.00 74 1013.8
20260507173519 56 0 1.0 5.0 0.00 0.00 0.00 72 1013.8
20260507173058 57 154 2.0 5.0 0.00 0.00 0.00 71 1013.8
20260507172518 57 154 3.0 5.0 0.00 0.00 0.00 70 1013.8
20260507172020 57 138 1.0 5.0 0.00 0.00 0.00 68 1013.7
20260507171543 57 138 2.0 5.0 0.00 0.00 0.00 68 1013.7
20260507171022 57 139 2.0 8.0 0.00 0.00 0.00 68 1013.7
20260507170521 57 139 2.0 8.0 0.00 0.00 0.00 68 1013.7
20260507170042 57 138 2.0 9.0 0.00 0.00 0.00 67 1013.7
20260507165522 57 143 3.0 9.0 0.00 0.00 0.00 67 1013.8
20260507165022 58 143 3.0 10.0 0.00 0.00 0.00 68 1013.7
20260507164541 58 151 3.0 10.0 0.00 0.00 0.00 67 1013.8
20260507164023 58 158 3.0 10.0 0.00 0.00 0.00 67 1013.8
20260507163524 58 148 4.0 10.0 0.00 0.00 0.00 66 1013.7
20260507163040 58 147 2.0 10.0 0.00 0.00 0.00 66 1013.7
20260507162528 58 133 4.0 10.0 0.00 0.00 0.00 66 1013.7
20260507162020 58 138 4.0 10.0 0.00 0.00 0.00 66 1013.7
20260507161543 58 148 3.0 12.0 0.00 0.00 0.00 66 1013.7
20260507161020 58 147 3.0 12.0 0.00 0.00 0.00 66 1013.8
20260507160518 58 155 5.0 12.0 0.00 0.00 0.00 65 1013.7
20260507160038 59 153 5.0 12.0 0.00 0.00 0.00 65 1013.7
20260507155517 59 154 6.0 12.0 0.00 0.00 0.00 65 1013.8
20260507155022 59 180 3.0 11.0 0.00 0.00 0.00 64 1013.8
20260507154541 59 175 5.0 13.0 0.00 0.00 0.00 63 1013.8
20260507154021 59 175 5.0 13.0 0.00 0.00 0.00 63 1013.8
20260507153525 60 156 6.0 12.0 0.00 0.00 0.00 63 1013.8
20260507153041 60 162 5.0 11.0 0.00 0.00 0.00 62 1013.8
20260507152523 61 160 2.0 15.0 0.00 0.00 0.00 63 1013.8
20260507152031 61 116 5.0 15.0 0.00 0.00 0.00 60 1013.9
20260507151542 61 110 4.0 12.0 0.00 0.00 0.00 62 1013.8
20260507151020 60 108 6.0 12.0 0.00 0.00 0.00 67 1013.7
20260507150523 59 139 6.0 12.0 0.00 0.00 0.00 69 1013.8
20260507150043 58 147 3.0 11.0 0.00 0.00 0.00 67 1013.8
20260507145520 58 122 3.0 9.0 0.00 0.00 0.00 67 1013.9
20260507145025 58 129 3.0 11.0 0.00 0.00 0.00 68 1014.0
20260507144541 58 135 4.0 11.0 0.00 0.00 0.00 65 1014.1
20260507144021 58 150 3.0 11.0 0.00 0.00 0.00 67 1014.0
20260507143521 58 147 3.0 9.0 0.00 0.00 0.00 66 1014.1
20260507143054 59 146 3.0 9.0 0.00 0.00 0.00 65 1014.2
20260507142518 59 144 4.0 9.0 0.00 0.00 0.00 64 1014.3
20260507142027 59 126 4.0 10.0 0.00 0.00 0.00 63 1014.3
20260507141550 59 146 4.0 13.0 0.00 0.00 0.00 62 1014.3
20260507141020 60 156 4.0 16.0 0.00 0.00 0.00 61 1014.4
20260507140521 60 155 7.0 16.0 0.00 0.00 0.00 61 1014.3
20260507140039 61 143 5.0 11.0 0.00 0.00 0.00 63 1014.4
20260507135519 61 143 5.0 15.0 0.00 0.00 0.00 62 1014.4
20260507135019 62 118 7.0 15.0 0.00 0.00 0.00 62 1014.4
20260507134536 62 133 5.0 14.0 0.00 0.00 0.00 61 1014.5
20260507134017 62 155 7.0 14.0 0.00 0.00 0.00 61 1014.4
20260507133521 63 162 5.0 14.0 0.00 0.00 0.00 61 1014.5
20260507133109 63 113 5.0 14.0 0.00 0.00 0.00 61 1014.5
20260507132523 63 133 4.0 13.0 0.00 0.00 0.00 66 1014.6
20260507132020 62 139 6.0 13.0 0.00 0.00 0.00 66 1014.7
20260507131545 61 216 6.0 13.0 0.00 0.00 0.00 68 1014.6
20260507131311 60 140 5.0 12.0 0.00 0.00 0.00 67 1014.6
20260507130521 60 133 3.0 15.0 0.00 0.00 0.00 68 1014.6
20260507130053 59 145 6.0 15.0 0.00 0.00 0.00 67 1014.6
20260507125517 59 155 6.0 12.0 0.00 0.00 0.00 66 1014.7
20260507125017 59 164 3.0 14.0 0.00 0.00 0.00 67 1014.6
20260507124547 59 165 7.0 16.0 0.00 0.00 0.00 67 1014.8
20260507124018 59 133 8.0 16.0 0.00 0.00 0.00 68 1014.8
20260507123522 59 180 7.0 12.0 0.00 0.00 0.00 66 1014.6
20260507123044 59 149 6.0 13.0 0.00 0.00 0.00 68 1014.7
20260507122518 59 180 4.0 14.0 0.00 0.00 0.00 70 1014.9
20260507122019 58 156 4.0 15.0 0.00 0.00 0.00 70 1014.9
20260507121537 58 136 5.0 15.0 0.00 0.00 0.00 68 1014.9
20260507121047 58 145 7.0 15.0 0.00 0.00 0.00 67 1015.0
20260507120521 58 139 5.0 14.0 0.00 0.00 0.00 69 1015.0
20260507120041 57 212 6.0 14.0 0.00 0.00 0.00 67 1015.2
20260507115521 57 206 5.0 12.0 0.00 0.00 0.00 70 1015.2
20260507115022 57 197 5.0 11.0 0.00 0.00 0.00 68 1015.3
20260507114555 57 122 5.0 12.0 0.00 0.00 0.00 72 1015.3
20260507114021 57 142 4.0 12.0 0.00 0.00 0.00 70 1015.3
20260507113519 57 189 5.0 11.0 0.00 0.00 0.00 70 1015.3
20260507113041 57 151 4.0 12.0 0.00 0.00 0.00 72 1015.4
20260507112518 56 149 6.0 12.0 0.00 0.00 0.00 72 1015.3
20260507112022 56 125 5.0 14.0 0.00 0.00 0.00 73 1015.3
20260507111539 56 127 7.0 14.0 0.00 0.00 0.00 74 1015.3
20260507111021 55 120 6.0 12.0 0.00 0.00 0.00 75 1015.5
20260507110521 55 136 6.0 12.0 0.00 0.00 0.00 76 1015.4
20260507110042 54 160 5.0 13.0 0.00 0.00 0.00 75 1015.6
20260507105521 54 149 5.0 13.0 0.00 0.00 0.00 76 1015.6
20260507105021 54 139 5.0 12.0 0.00 0.00 0.00 77 1015.7
20260507104541 54 147 5.0 12.0 0.00 0.00 0.00 78 1015.7
20260507104021 53 126 3.0 11.0 0.00 0.00 0.00 80 1015.7
20260507103518 53 121 5.0 11.0 0.00 0.00 0.00 81 1015.8
20260507103048 52 141 5.0 11.0 0.00 0.00 0.00 80 1015.9
20260507102520 52 159 3.0 12.0 0.00 0.00 0.00 81 1015.8
20260507102018 51 131 5.0 12.0 0.00 0.00 0.00 82 1015.8
20260507101540 51 125 4.0 11.0 0.00 0.00 0.00 83 1015.8
20260507101019 51 113 7.0 11.0 0.00 0.00 0.00 83 1015.8
20260507100518 50 107 5.0 9.0 0.00 0.00 0.00 84 1015.8
20260507100039 50 119 5.0 11.0 0.00 0.00 0.00 83 1015.8
20260507095520 50 117 2.0 11.0 0.00 0.00 0.00 84 1015.8
20260507095018 50 137 3.0 10.0 0.00 0.00 0.00 85 1015.9
20260507094542 49 124 4.0 10.0 0.00 0.00 0.00 85 1015.9
20260507094025 49 131 2.0 10.0 0.00 0.00 0.00 86 1015.8
20260507093519 49 143 4.0 11.0 0.00 0.00 0.00 86 1015.9
20260507093041 49 127 4.0 11.0 0.00 0.00 0.00 86 1015.8
20260507092521 48 114 5.0 11.0 0.00 0.00 0.00 86 1015.8
20260507092017 48 122 5.0 11.0 0.00 0.00 0.00 87 1015.8
20260507091540 48 118 5.0 10.0 0.00 0.00 0.00 87 1015.8
20260507091020 48 140 4.0 11.0 0.00 0.00 0.00 87 1015.9
20260507090522 48 141 5.0 12.0 0.00 0.00 0.00 87 1015.8
20260507090043 48 137 6.0 12.0 0.00 0.00 0.00 87 1015.8
20260507085522 48 114 5.0 10.0 0.00 0.00 0.00 87 1015.8
20260507085024 47 130 5.0 12.0 0.00 0.00 0.00 87 1015.8
20260507084539 47 141 5.0 12.0 0.00 0.00 0.00 87 1015.7
20260507084026 47 140 5.0 11.0 0.00 0.00 0.00 87 1015.8
20260507083522 47 133 4.0 11.0 0.00 0.00 0.00 88 1015.8
20260507083036 47 116 5.0 10.0 0.00 0.00 0.00 88 1015.7
20260507082522 47 180 4.0 13.0 0.00 0.00 0.00 88 1015.7
20260507082021 47 140 5.0 13.0 0.00 0.00 0.00 88 1015.7
20260507081542 47 120 5.0 13.0 0.00 0.00 0.00 88 1015.7
20260507081021 46 141 4.0 13.0 0.00 0.00 0.00 88 1015.6
20260507080523 46 131 6.0 13.0 0.00 0.00 0.00 88 1015.7
20260507080044 46 133 5.0 12.0 0.00 0.00 0.00 88 1015.7
20260507075522 46 143 4.0 10.0 0.00 0.00 0.00 88 1015.7
20260507075021 46 151 4.0 10.0 0.00 0.00 0.00 88 1015.7
20260507074547 46 151 3.0 13.0 0.00 0.00 0.00 88 1015.8
20260507074021 46 126 4.0 13.0 0.00 0.00 0.00 89 1015.7
20260507073525 46 161 4.0 13.0 0.00 0.00 0.00 89 1015.7
20260507073036 46 155 2.0 10.0 0.00 0.00 0.00 89 1015.7
20260507072522 46 132 4.0 11.0 0.00 0.00 0.00 89 1015.6
20260507072021 46 123 4.0 11.0 0.00 0.00 0.00 89 1015.7
20260507071543 46 125 4.0 11.0 0.00 0.00 0.00 89 1015.6
20260507071022 46 125 2.0 9.0 0.00 0.00 0.00 89 1015.6
20260507070522 46 125 2.0 9.0 0.00 0.00 0.00 89 1015.7
20260507070051 46 147 2.0 9.0 0.00 0.00 0.00 89 1015.6
20260507065522 45 118 4.0 9.0 0.00 0.00 0.00 89 1015.5
20260507065022 45 128 3.0 11.0 0.00 0.00 0.00 89 1015.6
20260507064547 45 135 2.0 11.0 0.00 0.00 0.00 89 1015.5
20260507064021 45 116 3.0 10.0 0.00 0.00 0.00 89 1015.6
20260507063522 45 125 4.0 10.0 0.00 0.00 0.00 89 1015.5
20260507063041 45 128 3.0 10.0 0.00 0.00 0.00 89 1015.5
20260507062522 45 133 5.0 10.0 0.00 0.00 0.00 89 1015.5
20260507062022 45 0 2.0 7.0 0.00 0.00 0.00 89 1015.5
20260507061538 45 129 3.0 7.0 0.00 0.00 0.00 89 1015.6
20260507061025 45 130 3.0 9.0 0.00 0.00 0.00 89 1015.5
20260507060521 45 112 2.0 9.0 0.00 0.00 0.00 89 1015.5
20260507060035 45 117 5.0 9.0 0.00 0.00 0.00 89 1015.4
20260507055522 45 129 3.0 9.0 0.00 0.00 0.00 89 1015.5
20260507055022 45 113 4.0 9.0 0.00 0.00 0.00 89 1015.5
20260507054541 45 165 3.0 8.0 0.00 0.00 0.00 89 1015.4
20260507054018 45 127 3.0 10.0 0.00 0.00 0.00 89 1015.4
20260507053518 45 135 3.0 10.0 0.00 0.00 0.00 89 1015.4
20260507053041 44 141 4.0 9.0 0.00 0.00 0.00 89 1015.3
20260507052518 44 130 4.0 9.0 0.00 0.00 0.00 89 1015.5
20260507052018 45 117 4.0 9.0 0.00 0.00 0.00 89 1015.4
20260507051542 44 124 4.0 9.0 0.00 0.00 0.00 89 1015.3
20260507051018 44 134 3.0 10.0 0.00 0.00 0.00 89 1015.4
20260507050518 44 118 3.0 10.0 0.00 0.00 0.00 89 1015.3
20260507050040 44 145 3.0 10.0 0.00 0.00 0.00 89 1015.3
20260507045518 44 116 3.0 9.0 0.00 0.00 0.00 89 1015.3
20260507045018 44 109 2.0 9.0 0.00 0.00 0.00 89 1015.3
20260507044542 44 104 3.0 8.0 0.00 0.00 0.00 89 1015.3
20260507044018 44 106 2.0 8.0 0.00 0.00 0.00 89 1015.3
20260507043520 44 106 3.0 8.0 0.00 0.00 0.00 89 1015.3
20260507043042 44 106 3.0 8.0 0.00 0.00 0.00 89 1015.3
20260507042520 44 109 3.0 8.0 0.00 0.00 0.00 89 1015.3
20260507042024 44 108 2.0 8.0 0.00 0.00 0.00 89 1015.3
20260507041545 44 108 4.0 8.0 0.00 0.00 0.00 89 1015.4
20260507041021 44 108 3.0 8.0 0.00 0.00 0.00 89 1015.3
20260507040518 44 108 2.0 10.0 0.00 0.00 0.00 89 1015.3
20260507040045 44 105 4.0 10.0 0.00 0.00 0.00 89 1015.4
20260507035520 44 106 2.0 9.0 0.00 0.00 0.00 88 1015.4
20260507035018 44 108 3.0 10.0 0.00 0.00 0.00 88 1015.4
20260507034542 44 107 4.0 10.0 0.00 0.00 0.00 89 1015.4
20260507034022 44 110 2.0 9.0 0.00 0.00 0.00 88 1015.3
20260507033519 44 116 3.0 9.0 0.00 0.00 0.00 88 1015.3
20260507033045 44 116 2.0 9.0 0.00 0.00 0.00 88 1015.3
20260507032520 44 106 2.0 9.0 0.00 0.00 0.00 88 1015.3
20260507032024 44 110 3.0 9.0 0.00 0.00 0.00 88 1015.3
20260507031554 44 114 2.0 9.0 0.00 0.00 0.00 88 1015.3
20260507031021 44 114 4.0 9.0 0.00 0.00 0.00 88 1015.4
20260507030519 44 116 3.0 10.0 0.00 0.00 0.00 88 1015.4
20260507030104 44 126 5.0 10.0 0.00 0.00 0.00 89 1015.3
20260507025518 44 115 4.0 10.0 0.00 0.00 0.00 89 1015.3
20260507025023 44 126 5.0 10.0 0.00 0.00 0.00 89 1015.5
20260507024601 44 112 4.0 10.0 0.00 0.00 0.00 89 1015.5
20260507024018 44 113 4.0 9.0 0.00 0.00 0.00 89 1015.4
20260507023519 44 114 3.0 9.0 0.00 0.00 0.00 89 1015.5
20260507023041 44 120 3.0 8.0 0.00 0.00 0.00 89 1015.5
20260507022520 44 126 2.0 10.0 0.00 0.00 0.00 88 1015.5
20260507022019 44 119 2.0 10.0 0.00 0.00 0.00 88 1015.5
20260507021552 44 122 3.0 8.0 0.00 0.00 0.00 88 1015.5
20260507021019 44 118 3.0 8.0 0.00 0.00 0.00 88 1015.5
20260507020520 44 180 2.0 8.0 0.00 0.00 0.00 88 1015.4
20260507020047 44 114 2.0 7.0 0.00 0.00 0.00 88 1015.5
20260507015518 44 0 3.0 7.0 0.00 0.00 0.00 88 1015.5
20260507015018 44 115 3.0 8.0 0.00 0.00 0.00 88 1015.6
20260507014552 44 115 2.0 8.0 0.00 0.00 0.00 88 1015.6
20260507014019 44 117 3.0 10.0 0.00 0.00 0.00 88 1015.6
20260507013518 44 119 4.0 10.0 0.00 0.00 0.00 88 1015.6
20260507013043 44 107 3.0 9.0 0.00 0.00 0.00 87 1015.6
20260507012521 44 106 2.0 9.0 0.00 0.00 0.00 87 1015.6
20260507012018 44 104 3.0 9.0 0.00 0.00 0.00 87 1015.6
20260507011547 44 104 4.0 9.0 0.00 0.00 0.00 87 1015.6
20260507011019 44 100 2.0 8.0 0.00 0.00 0.00 87 1015.7
20260507010519 44 102 2.0 8.0 0.00 0.00 0.00 87 1015.7
20260507010042 44 101 4.0 9.0 0.00 0.00 0.00 87 1015.7
20260507005519 44 103 3.0 9.0 0.00 0.00 0.00 87 1015.8
20260507005025 44 102 3.0 9.0 0.00 0.00 0.00 87 1015.8
20260507004535 44 102 3.0 7.0 0.00 0.00 0.00 86 1015.9
20260507004019 44 104 2.0 7.0 0.00 0.00 0.00 86 1015.9
20260507003519 45 103 3.0 6.0 0.00 0.00 0.00 86 1015.9
20260507003042 45 103 3.0 7.0 0.00 0.00 0.00 85 1015.9
20260507002521 45 103 3.0 8.0 0.00 0.00 0.00 85 1015.9
20260507002018 45 103 4.0 8.0 0.00 0.00 0.00 85 1016.0
20260507001541 45 104 3.0 9.0 0.00 0.00 0.00 85 1015.9
20260507001021 45 103 3.0 9.0 0.00 0.00 0.00 85 1016.0
20260507000521 45 104 3.0 8.0 0.00 0.00 0.00 85 1016.0
20260507000040 45 102 4.0 8.0 0.00 0.00 0.00 85 1015.9
20260506235522 45 104 4.0 8.0 0.00 0.00 0.00 85 1016.0
20260506235018 45 108 3.0 11.0 0.00 0.00 0.00 85 1015.9
20260506234605 45 120 4.0 13.0 0.00 0.00 0.00 85 1015.8
20260506234020 45 111 6.0 13.0 0.00 0.00 0.00 85 1015.9
20260506233519 45 105 6.0 12.0 0.00 0.00 0.00 86 1015.9
20260506233049 45 112 3.0 8.0 0.00 0.00 0.00 85 1015.9
20260506232518 46 114 4.0 8.0 0.00 0.00 0.00 85 1015.8
20260506232018 46 180 2.0 10.0 0.00 0.00 0.00 85 1015.9
20260506231546 46 180 4.0 10.0 0.00 0.00 0.00 85 1015.8
20260506231019 46 108 4.0 9.0 0.00 0.00 0.00 85 1015.7
20260506230521 46 107 4.0 9.0 0.00 0.00 0.00 84 1015.8
20260506230046 46 180 4.0 9.0 0.00 0.00 0.00 84 1015.8
20260506225518 46 111 2.0 7.0 0.00 0.00 0.00 84 1015.7
20260506225023 46 111 2.0 7.0 0.00 0.00 0.00 83 1015.7
20260506224541 46 110 1.0 5.0 0.00 0.00 0.00 83 1015.7
20260506224018 46 111 1.0 5.0 0.00 0.00 0.00 82 1015.6
20260506223519 46 110 2.0 5.0 0.00 0.00 0.00 82 1015.6
20260506223035 47 111 1.0 5.0 0.00 0.00 0.00 81 1015.6
20260506222519 47 111 1.0 5.0 0.00 0.00 0.00 81 1015.6
20260506222019 47 111 1.0 5.0 0.00 0.00 0.00 80 1015.6
20260506221535 47 111 1.0 4.0 0.00 0.00 0.00 80 1015.5
20260506221018 48 111 1.0 4.0 0.00 0.00 0.00 79 1015.6
20260506220519 48 111 2.0 5.0 0.00 0.00 0.00 78 1015.5
20260506220036 48 110 1.0 5.0 0.00 0.00 0.00 78 1015.4
20260506215518 48 111 1.0 5.0 0.00 0.00 0.00 78 1015.4
20260506215018 48 111 2.0 7.0 0.00 0.00 0.00 78 1015.4
20260506214546 49 112 2.0 7.0 0.00 0.00 0.00 77 1015.4
20260506214024 49 112 2.0 5.0 0.00 0.00 0.00 77 1015.4
20260506213522 49 112 2.0 5.0 0.00 0.00 0.00 77 1015.3
20260506213043 49 114 2.0 8.0 0.00 0.00 0.00 77 1015.3
20260506212520 49 114 2.0 11.0 0.00 0.00 0.00 77 1015.3
20260506212021 50 119 3.0 11.0 0.00 0.00 0.00 77 1015.2
20260506211541 50 132 4.0 10.0 0.00 0.00 0.00 76 1015.2
20260506211021 50 103 3.0 9.0 0.00 0.00 0.00 76 1015.1
20260506210520 50 105 1.0 9.0 0.00 0.00 0.00 76 1015.1
20260506210041 50 106 4.0 9.0 0.00 0.00 0.00 76 1015.1
20260506205521 50 107 5.0 11.0 0.00 0.00 0.00 75 1015.0
20260506205021 50 110 4.0 11.0 0.00 0.00 0.00 75 1014.9
20260506204544 50 180 6.0 11.0 0.00 0.00 0.00 75 1014.9
20260506204021 50 95 5.0 11.0 0.00 0.00 0.00 75 1014.8
20260506203519 51 105 5.0 10.0 0.00 0.00 0.00 74 1014.9